Location: Dakoming
(43.5975°N, 104.0727°W)
Time: 06:06:02
(UTC+00:00)

BlueWalker 3 - Visible Passes

Search period start: 20 January 2026 00:00
Search period end: 30 January 2026 00:00
Orbit: 451 x 463 km, 53.2° (Epoch: 19 January)

Date Brightness Start Highest point End Pass type
(mag) Time Alt. Az. Time Alt. Az. Time Alt. Az.
20 Jan 4.1 00:46:45 10° SE 00:47:13 10° SE 00:47:39 10° ESE visible
20 Jan 3.9 02:20:33 10° SW 02:21:58 22° SW 02:21:58 22° SW visible
21 Jan 2.0 01:45:16 10° SW 01:48:25 56° S 01:48:25 56° S visible
22 Jan 2.2 01:10:01 10° SSW 01:13:25 45° SE 01:14:46 29° E visible
22 Jan 4.8 02:47:44 10° W 02:48:31 15° W 02:48:31 15° W visible
23 Jan 2.6 00:34:48 10° SSW 00:38:04 34° SE 00:41:02 12° ENE visible
23 Jan 3.2 02:12:10 10° W 02:14:47 33° WNW 02:14:47 33° WNW visible
24 Jan 2.4 01:36:36 10° WSW 01:40:03 46° NNW 01:40:58 36° NNE visible
25 Jan 2.1 01:01:04 10° WSW 01:04:35 57° NNW 01:07:05 18° NE visible
25 Jan 4.6 02:39:56 10° WNW 02:40:50 14° NW 02:40:50 14° NW visible
26 Jan 1.9 00:25:33 10° WSW 00:29:07 73° NNW 00:32:41 10° NE visible
26 Jan 3.7 02:04:14 10° WNW 02:06:53 21° NNW 02:06:53 21° NNW visible
27 Jan 3.5 01:28:33 10° WNW 01:31:30 24° NNW 01:32:53 19° NNE visible
28 Jan 3.3 00:52:50 10° W 00:55:55 26° NNW 00:58:52 11° NE visible
28 Jan 4.5 02:31:50 10° NW 02:32:35 13° NNW 02:32:35 13° NNW visible
29 Jan 3.8 01:56:12 10° NW 01:58:32 17° N 01:58:32 17° N visible
